Overview Statistics Trail Chart Weather Telemetry Raw packets
 

This is the latest recevied weather packets stored in our database for station/object OH6GKW. If no packets are shown the sender has not sent any weather packets the latest 10 day(s).

<< 57 58 59 60 61 62 63 >>
Time Temp. Humidity Pressure Rain* Wind** Luminosity Snow
1788272315 15.56° C 86% 1002.7 hPa 0.25 mm - 320 W/m² -
1788272011 15.56° C 85% 1002.7 hPa 0.25 mm - 125 W/m² -
1788271719 15.56° C 88% 1002.7 hPa 0.25 mm - 436 W/m² -
1788271417 15.56° C 89% 1002.7 hPa 0.25 mm - 450 W/m² -
1788271109 15° C 89% 1002.6 hPa 0.25 mm - 158 W/m² -
1788270834 15° C 89% 1002.6 hPa 0.25 mm - 211 W/m² -
1788270524 15.56° C 89% 1002.6 hPa 0.25 mm - 236 W/m² -
1788270220 15.56° C 89% 1002.6 hPa 0.25 mm - 199 W/m² -
1788269912 15.56° C 89% 1002.6 hPa 0.25 mm - 125 W/m² -
1788269627 15.56° C 88% 1002.6 hPa 0.25 mm - 199 W/m² -
1788269321 15.56° C 88% 1002.4 hPa 0.25 mm - 179 W/m² -
1788269021 16.11° C 87% 1002.5 hPa 0.25 mm - 130 W/m² -
1788268728 16.11° C 87% 1002.5 hPa 0.25 mm - 429 W/m² -
1788268419 16.67° C 87% 1002.3 hPa 0.25 mm - 470 W/m² -
1788268111 16.67° C 86% 1002.3 hPa 0.25 mm - 477 W/m² -
1788267816 16.67° C 87% 1002.3 hPa 0.25 mm - 413 W/m² -
1788267509 16.67° C 85% 1002.2 hPa 0.25 mm - 216 W/m² -
1788267222 16.67° C 84% 1002.2 hPa 0.25 mm - 308 W/m² -
1788266920 16.67° C 85% 1002.2 hPa 0.25 mm - 443 W/m² -
1788266616 16.67° C 84% 1002.2 hPa 0.25 mm - 551 W/m² -
1788266328 16.67° C 85% 1002.2 hPa 0.25 mm - 190 W/m² -
1788266023 17.22° C 84% 1002.3 hPa 0.25 mm - 245 W/m² -
1788265711 17.22° C 84% 1002.3 hPa 0.25 mm - 516 W/m² -
1788265435 16.67° C 84% 1002.3 hPa 0.25 mm - 202 W/m² -
1788265127 16.67° C 84% 1002.3 hPa 0.25 mm - 197 W/m² -

* Rain since midnight (hover to see other rain measurements)
** Current wind speed in m/s (hover to see current wind gust speed)